Regional Weather Roundup
Issued by NWS Portland, ME

Home | Current Version | Previous Version | Text Only | Print | Product List | Glossary On
Versions: 1 2 3 4 5 6 7 8 9 10 11 12 13 14 15 16 17 18 19 20 21 22 23 24 25 26 27 28 29 30 31 32 33 34 35 36 37 38 39 40 41 42 43 44 45 46 47 48 49 50
002
ASUS41 KGYX 282310
RWRGYX
WEATHER ROUNDUP FOR MAINE AND NEW HAMPSHIRE
NATIONAL WEATHER SERVICE GRAY ME
700 PM EDT TUE MAR 28 2017

MEZ002-005-006-010-012-015-018-020-021-024-026-027-029-290000-
MAINE

CITY           SKY/WX    TMP DP  RH WIND       PRES   REMARKS
PORTLAND       LGT RAIN  36  34  92 E5        30.01R FOG
SANFORD        LGT RAIN  36  35  96 E3        29.99S
BAR HARBOR     CLOUDY    35  32  88 E5        30.00F
WISCASSET      CLOUDY    36  35  96 CALM      30.02S
ROCKLAND       CLOUDY    35  33  92 CALM      30.01R
FRYEBURG       CLOUDY    36  34  92 SE5       29.97S
LEWISTONAUBURN CLOUDY    35  33  92 S6        29.99S
AUGUSTA        CLOUDY    35  33  92 S5        29.99R
WATERVILLE     LGT RAIN  36  34  93 CALM      29.96R VSB 1/4
BANGOR         LGT RAIN  35  33  92 CALM      30.00S
GREENVILLE       N/A     30  30 100 CALM      29.91R
MILLINOCKET    MIX PCPN  32  32 100 E3        30.00S FOG
HOULTON        FRZ RAIN  32  30  92 SE6       29.99F FOG
PRESQUE ISLE   LGT SNOW  30  30 100 CALM      30.01R VSB 3/4
FRENCHVILLE    SNOW      30  27  88 SE3       29.98R VSB 1/4
CARIBOU        LGT SNOW  31  29  92 SE5       29.99S VSB 1
$$

NHZ002-005-008-009-011-012-014-290000-
NEW HAMPSHIRE

CITY           SKY/WX    TMP DP  RH WIND       PRES   REMARKS
PORTSMOUTH     LGT RAIN  37  36  95 E3        29.97F FOG
ROCHESTER      LGT RAIN  36  34  92 CALM      29.96F FOG
NASHUA         LGT RAIN  38  38 100 CALM      29.97S FOG
MANCHESTER     LGT RAIN  38  35  89 CALM      29.95S FOG
CONCORD        LGT RAIN  37  35  92 CALM      29.97R FOG
LACONIA        LGT RAIN  35  33  92 CALM      29.96S FOG
PLYMOUTH       CLOUDY    36  35  95 CALM      29.96S FOG
BERLIN         CLOUDY    38  35  89 CALM      29.92R FOG
WHITEFIELD     LGT RAIN  41  36  82 CALM      29.93R
JAFFREY        LGT RAIN  37  36  96 CALM      29.92S FOG
KEENE          RAIN      40  39  97 NE3       29.93S
LEBANON        CLOUDY    40  37  89 NE6       29.93R
MT WASHINGTON  DRZL/FOG  36  36 100 W32         N/A  VSB 0
$$

VTZ005-007-008-290000-
VERMONT

CITY           SKY/WX    TMP DP  RH WIND       PRES   REMARKS
ST JOHNSBURY     N/A     41  38  89 MISG      29.92R
MONTPELIER     LGT RAIN  40  40 100 NW5       29.96S VSB 1/2
BURLINGTON     LGT RAIN  37  35  92 N8        30.00R FOG
$$

MAZ007-012-024-CTZ003-RIZ002-NYZ038-NYZ072-290000-
SOUTHERN NEW ENGLAND AND NY

CITY           SKY/WX    TMP DP  RH WIND       PRES   REMARKS
WORCESTER      LGT RAIN  36  35  96 NE7       29.91F VSB 1/4
NANTUCKET      CLOUDY    41  39  93 NE10      29.92F
PROVIDENCE     LGT RAIN  42  40  92 NE8       29.93S
HARTFORD       LGT RAIN  43  42  97 NE3       29.93R
ALBANY         CLOUDY    47  43  86 CALM      29.91R FOG
NEW YORK CITY  LGT RAIN  42  38  85 NE17      29.90R FOG
$$

ANZ081-ANZ082-ANZ150-NHZ014-MEZ023>029-290000-
COASTAL MARINE OBSERVATIONS

STATION/POSITION TIME  TEMP    WIND        PRES    WAVE
                       AIR SEA DIR/SP/G            HT/PER
                 (UTC) (F)     (DEG/KT/KT) (MB)    (FT/S)
MOUNT DESERT ROC 2300   36                 1015.8F
MATINICUS ROCK   2200   36      80/ 10/ 11 1015.4S
ISLE OF SHOALS   2200   37      30/  7/  8 1015.2F
JEFFREYS LEDGE   2206      41                N/A     4/ 7
CASHES LEDGE BUO 2250   37 40              1016.0S   4/ 7
GEORGES BANK BUO 2150   38 40              1014.6    5/ 6
$$

.............KEY..............
   WCI - WIND CHILL
   TC  - TEMPERATURE IN CELSIUS
   VSB - VISIBILITY IN MILES
   HX  - HEAT INDEX
   FAIR- INDICATES FEW OR NO CLOUDS BELOW 12,000 FT, WITH NO
         SIGNIFICANT WEATHER AND/OR OBSTRUCTIONS TO VISIBILITY.






USA.gov is the U.S. government's official web portal to all federal, state and local government web resources and services.